Location: �terpigny
(49.8910°N, 2.9249°E)
Time: 06:00:23
(UTC+00:00)

NANOSAT C BR1 - Pass Details

Date: 10 July 2022
Orbit: 584 x 599 km, 98.0° (Epoch: 14 August)

Event Time Altitude Azimuth Distance (km) Brightness Sun altitude
Rises 00:53:56 0° 28° (NNE) 2,858 ? -16.6°
Reaches altitude 10° 00:56:46 10° 48° (NE) 1,951 ? -16.5°
Maximum altitude 00:59:36 17° 90° (E) 1,520 ? -16.4°
Drops below altitude 10° 01:02:27 10° 133° (SE) 1,941 ? -16.3°
Enters shadow 01:02:44 - 136° (SE) 2,019 ? -16.2°
